BRITE-CA1 (TORONTO)

Last updated on Wed Sep 17 2025 00:03:34 GMT+0000 (Coordinated Universal Time)

1 40020U 14033L 25259.15654618 .00001059 00000+0 16870-3 0 9995 2 40020 97.9389 28.8943 0081006 74.4819 286.5315 14.71851345601898
UTC large
Height (km)
Speed (km/s)
/
Latitude / Longitude
Inclination (degrees)
Orbital Period (minutes)
Azimuth
Elevation
Range (km)
Doppler Factor

Next 0 passes for location: London (51.5072 / 0.1276)

Sorry there are no passes over London.